Starlink 33774

operational
NORAD ID: 63721 Int'l Des: 2025-087 Owner: SPXS Country: US Constellation: starlink
LEOCIRCULAR

About Starlink 33774

Description loading...

Live Position

Loading 3D Globe...

Upcoming Passes

Altitude History

Altitude vs Time

uPlot chart will show altitude changes over time

Two-Line Element Set

1 63721U 25087AA 26062.72334133 .00032518 00000-0 11046-2 0 9996
2 63721 53.1577 247.4442 0001554 137.7890 222.3231 15.30217244 48282
Epoch: Mar 3, 2026 • Age: 38 hours

Current Status

Altitude 476.9 km
Velocity 7.63 km/s
Sub-Earth Point 30.07°N, 101.9°W
Launch Date Apr 28, 2025
Age 0.8 years
Type internet

Technical Details

Classification Payload
Mass 575.00 kg
Dry Mass 530.00 kg
Total Mass 575.00 kg
Length 0.30 m
Diameter 4.10 m
Span 29.00 m
Shape Box + pan
Manufacturer SPXS
Bus Type Starlink V2MO
Phase Status In Orbit
Owner/State SPXS/US

Large Constellations

Loading constellations...